[[{"header":{"parameterUnit":"m.s-1","parameterCategory":1,"la1":30.2991,"la2":30.254,"lo1":-89.0895,"lo2":-89.0444,"dy":0.0017,"dx":0.0017,"nx":28,"ny":28,"refTime":"2023-08-15T21:00:00:Z","depth":0,"parameterNumber":2,"parameterNumberName":"U-component_of_WINDS"},"data":[0,0,0,0,0,0,0,0,0,0,0,0,0,0,0,0,0,0,0,0,0,0,0,0,0,0,0,0,0,0,0,0,0,0,0,0,0,0,0,0,0,0,0,0,0,0,0,0,0,0,0,0,0,0,0,0,0,0,2.774,2.7741,0,2.7804,2.7805,2.7805,2.776,2.7758,2.7756,2.7754,2.7827,2.7831,2.7834,0,0,0,0,0,0,0,0,0,0,0,0,0,2.7585,2.7589,2.774,2.7741,2.7741,2.7804,2.7805,2.7806,2.7761,2.7758,2.7756,2.7754,2.7826,2.783,2.7835,0,0,0,0,0,0,0,0,0,0,0,0,0,2.7652,2.759,2.774,2.7726,2.7726,2.7804,2.7805,2.7806,2.7761,2.7758,2.7755,2.7752,2.7824,2.783,2.7835,2.7932,0,0,2.7853,2.7855,0,0,0,0,0,0,0,0,2.7648,2.7657,2.7728,2.7727,2.7727,2.7771,2.7777,2.7848,2.7762,2.7748,2.7754,2.7751,2.7811,2.7818,2.7837,2.7935,2.7938,2.7853,2.7857,2.7859,2.7861,0,0,0,0,0,0,0,2.7643,2.7654,2.7765,2.7729,2.7728,2.772,2.7726,2.779,2.7796,2.7749,2.7746,2.7754,2.781,2.7831,2.7838,2.7939,2.7853,2.7858,2.7862,2.7864,2.8121,2.8124,0,0,0,0,0,0,2.7639,2.7651,2.7763,2.7767,2.7679,2.7725,2.7731,2.776,2.7795,2.7798,2.7756,2.7751,2.7823,2.7831,2.784,2.7955,2.7859,2.7865,2.7868,2.8118,2.8122,2.8125,0,0,0,0,0,0,2.7636,2.7649,2.7761,2.7708,2.7722,2.7731,2.7763,2.7763,2.7783,2.7801,2.7802,2.7776,2.7821,2.7832,2.7909,2.7957,2.7867,2.7872,2.8114,2.8119,2.8124,2.8186,0,0,0,0,0,0,2.7632,2.7649,2.7683,2.7709,2.7725,2.7826,2.7766,2.7766,2.7793,2.7787,2.7819,2.7822,2.7819,2.7901,2.7915,2.7963,2.7877,2.8109,2.8116,2.8122,2.8179,2.8192,2.8203,0,0,0,0,0,2.7626,2.77,2.7685,2.7699,2.7768,2.7829,2.7838,2.7831,2.7797,2.7833,2.7844,2.7821,2.795,2.7909,2.7924,2.7975,2.8106,2.8114,2.8121,2.8174,2.819,2.8203,0,0,0,0,0,0,2.7681,2.7703,2.7687,2.7771,2.7798,2.7821,2.7866,2.7848,2.7888,2.7881,2.7874,2.7881,2.7961,2.7977,2.793,2.8071,2.8023,2.8034,2.8058,2.8073,2.8085,2.8079,2.7882,0,0,0,0,0,2.7703,2.7748,2.7766,2.7838,2.7852,2.7857,2.7884,2.7876,2.7905,2.7917,2.7934,2.7965,2.8012,2.8044,2.8088,2.8182,2.8189,2.8225,2.8237,2.8247,2.8256,2.8307,2.8323,2.815,2.815,2.815,0,0,2.7748,2.7766,2.7795,2.7849,2.787,2.7919,2.7867,2.7922,2.7958,2.7926,2.7998,2.8012,2.8047,2.8132,2.8171,2.8147,2.8306,2.8257,2.8264,2.8268,2.8317,2.8333,2.8348,2.8156,2.8155,2.8154,0,0,2.7856,2.7873,2.7935,2.7957,2.7987,2.799,2.8006,2.8032,2.8039,2.8111,2.8088,2.8134,2.8216,2.8241,2.8264,2.8383,2.8363,2.8399,2.8461,2.851,2.8524,2.8536,2.8578,2.8593,2.8408,2.8408,2.8408,0,2.7908,2.7979,2.797,2.8026,2.8051,2.8022,2.8086,2.8108,2.8153,2.8172,2.8145,2.8247,2.8268,2.8359,2.8388,2.8409,2.8426,2.8394,2.8522,2.8534,2.8546,2.8585,2.8601,2.8412,2.8412,2.8411,2.8411,0,2.8043,2.8093,2.814,2.8181,2.8212,2.8272,2.8274,2.8307,2.8297,2.8304,2.8379,2.8404,2.8453,2.8474,2.8467,2.8565,2.8549,2.8523,2.8474,2.8566,2.8603,2.8619,2.8418,2.8416,2.8415,2.8414,0,0,2.8184,2.8221,2.8238,2.8257,2.829,2.8329,2.8389,2.8435,2.8463,2.8497,2.8547,2.8617,2.8593,2.862,2.8615,2.8659,2.8752,2.8627,2.8628,2.8649,2.8861,2.8879,2.8897,2.8739,2.8742,2.8745,2.8858,0,2.8292,2.8393,2.8387,2.8483,2.853,2.8505,2.8557,2.8584,2.8593,2.8635,2.8646,2.8695,2.866,2.8676,2.8718,2.8731,2.8794,2.8723,2.8787,2.8789,2.8777,2.8917,2.8936,2.9042,2.8873,2.8875,2.8877,0,2.8431,2.8467,2.8566,2.8593,2.8612,2.8659,2.8701,2.8742,2.8773,2.8777,2.8807,2.8796,2.8858,2.8809,2.8896,2.8848,2.8874,2.8885,2.8889,2.8893,2.8837,2.8924,2.9075,2.909,2.89,2.8898,2.8896,0,2.8523,2.8596,2.8665,2.8683,2.8716,2.8749,2.8765,2.8793,2.8821,2.886,2.8878,2.8924,2.8949,2.8986,2.8988,2.8952,2.9076,2.9027,2.9081,2.9081,2.9106,2.9104,2.9262,2.9126,2.9126,2.9126,2.9125,0,2.8643,2.8705,2.8707,2.8749,2.8818,2.8813,2.8882,2.8895,2.8921,2.8967,2.895,2.8994,2.8994,2.904,2.9043,2.9114,2.9126,2.9131,2.9131,2.9131,2.9131,2.9147,2.9139,2.913,2.9129,2.9128,2.9127,0,2.8756,2.876,2.8833,2.8859,2.8867,2.8917,2.8939,2.8981,2.8988,2.9047,2.906,2.9073,2.9126,2.9132,2.9194,2.9196,2.9281,2.9274,2.927,2.9268,2.9321,2.9315,2.9494,2.9517,2.9368,2.9369,2.937,0,2.8831,2.8878,2.8908,2.8937,2.8954,2.9,2.9029,2.9027,2.9058,2.9098,2.9135,2.9185,2.9225,2.9312,2.9328,2.9375,2.9368,2.9428,2.9375,2.9375,2.9368,2.9364,2.9368,2.9437,2.9439,2.944,2.9441,0,2.8964,2.8964,2.9004,2.9047,2.9081,2.9115,2.9146,2.9171,2.9173,2.9209,2.9262,2.9293,2.9356,2.9407,2.9454,2.9473,2.9458,2.9458,2.9473,2.9473,2.9468,2.947,2.9296,2.9453,2.9452,2.9451,2.9451,2.945,2.9059,2.9099,2.9127,2.9173,2.9197,2.9227,2.9267,2.928,2.9323,2.9372,2.937,2.9428,2.946,2.9522,2.9544,2.9591,2.9571,2.9593,2.9598,2.9603,2.9607,2.9462,2.96,2.96,2.9599,2.9599,2.9599,0,2.9189,2.9206,2.9249,2.9293,2.933,2.9312,2.9347,2.9379,2.943,2.9461,2.95,2.9562,2.9612,2.9632,2.9681,2.9715,2.9709,2.9728,2.9724,2.9728,2.9623,2.9604,2.9731,2.9731,2.9731,2.9731,2.9731,2.9731,2.9261,2.9328,2.9332,2.9412,2.9429,2.9484,2.9505,2.9534,2.9558,2.9626,2.9667,2.9679,2.9706,2.9757,2.9803,2.9808,2.9826,2.9847,2.9849,2.975,2.9736,2.9723,2.9706,2.9852,2.9852,2.9951,2.9951,2.9952]},{"header":{"parameterUnit":"m.s-1","parameterCategory":1,"la1":30.2991,"la2":30.254,"lo1":-89.0895,"lo2":-89.0444,"dy":0.0017,"dx":0.0017,"nx":28,"ny":28,"refTime":"2023-08-15T21:00:00:Z","depth":0,"parameterNumber":3,"parameterNumberName":"V-component_of_WINDS"},"data":[0,0,0,0,0,0,0,0,0,0,0,0,0,0,0,0,0,0,0,0,0,0,0,0,0,0,0,0,0,0,0,0,0,0,0,0,0,0,0,0,0,0,0,0,0,0,0,0,0,0,0,0,0,0,0,0,0,0,5.1283,5.1284,0,5.1424,5.1426,5.1428,5.1459,5.1458,5.1457,5.1456,5.1589,5.1594,5.1598,0,0,0,0,0,0,0,0,0,0,0,0,0,5.1024,5.1029,5.1283,5.1285,5.1286,5.1424,5.1426,5.1428,5.1459,5.1457,5.1456,5.1455,5.1588,5.1593,5.1599,0,0,0,0,0,0,0,0,0,0,0,0,0,5.1148,5.103,5.1282,5.1319,5.1323,5.1424,5.1426,5.1429,5.1459,5.1457,5.1456,5.1455,5.1586,5.1593,5.1599,5.1671,0,0,5.162,5.1623,0,0,0,0,0,0,0,0,5.1141,5.1157,5.1311,5.1316,5.1322,5.1423,5.1384,5.1509,5.1459,5.1407,5.1456,5.1454,5.1534,5.1545,5.1575,5.1677,5.1683,5.162,5.1625,5.1627,5.1629,0,0,0,0,0,0,0,5.1132,5.1151,5.1338,5.1314,5.132,5.1323,5.1339,5.1408,5.1477,5.1411,5.1414,5.1431,5.1537,5.1568,5.1578,5.1685,5.162,5.1626,5.163,5.1633,5.1845,5.1847,0,0,0,0,0,0,5.1119,5.1144,5.1334,5.1343,5.1226,5.1329,5.1347,5.1391,5.1476,5.1488,5.1432,5.1432,5.1557,5.157,5.1583,5.1668,5.1627,5.1634,5.1638,5.1844,5.1846,5.1847,0,0,0,0,0,0,5.1114,5.1136,5.1328,5.1244,5.1269,5.1335,5.1385,5.1395,5.1427,5.1492,5.1503,5.1453,5.1557,5.1573,5.1648,5.1673,5.1637,5.1643,5.1842,5.1844,5.1846,5.1841,0,0,0,0,0,0,5.1106,5.1134,5.1165,5.1245,5.1273,5.1395,5.1387,5.1399,5.144,5.1441,5.1514,5.1525,5.1557,5.1638,5.1655,5.1682,5.1648,5.184,5.1843,5.1846,5.1839,5.1843,5.1846,0,0,0,0,0,5.1097,5.1157,5.1167,5.119,5.1315,5.1397,5.1413,5.1452,5.1442,5.1471,5.1512,5.1522,5.1668,5.1645,5.1664,5.1694,5.1838,5.1842,5.1845,5.1838,5.1843,5.1846,0,0,0,0,0,0,5.1076,5.1168,5.118,5.1269,5.1325,5.1402,5.1441,5.1456,5.1514,5.1512,5.1554,5.157,5.164,5.1675,5.1648,5.1764,5.1752,5.176,5.174,5.1745,5.1748,5.1737,5.1654,0,0,0,0,0,5.1083,5.1146,5.1221,5.1292,5.132,5.1375,5.1413,5.1437,5.1496,5.1519,5.1565,5.1618,5.1675,5.1712,5.1768,5.1844,5.1858,5.1873,5.1877,5.188,5.1885,5.1922,5.1929,5.1859,5.1859,5.1859,0,0,5.1095,5.1153,5.1191,5.1289,5.1336,5.1395,5.1395,5.1459,5.1502,5.1527,5.1601,5.1636,5.1697,5.1771,5.1806,5.1802,5.1907,5.1884,5.1886,5.189,5.1927,5.1933,5.1939,5.1862,5.1861,5.1861,0,0,5.1149,5.1201,5.1264,5.131,5.1381,5.1417,5.1432,5.1506,5.1531,5.1606,5.1624,5.1673,5.1772,5.1814,5.1848,5.1911,5.192,5.1927,5.1945,5.1981,5.1987,5.1991,5.201,5.2017,5.1933,5.1933,5.1933,0,5.1155,5.125,5.1293,5.1356,5.1396,5.1424,5.1484,5.1525,5.1609,5.1634,5.1628,5.175,5.1793,5.1875,5.189,5.1918,5.1932,5.1919,5.1983,5.1988,5.1994,5.2012,5.2019,5.1933,5.1933,5.1933,5.1933,0,5.1251,5.1316,5.1357,5.144,5.1484,5.1545,5.1593,5.1632,5.1651,5.1686,5.1758,5.181,5.1876,5.1897,5.1916,5.198,5.1974,5.1976,5.1964,5.2,5.2017,5.2025,5.1933,5.1933,5.1933,5.1933,0,0,5.1297,5.1402,5.1416,5.1451,5.1529,5.1578,5.1636,5.1704,5.1734,5.1789,5.1836,5.1917,5.1918,5.1956,5.1979,5.2011,5.2052,5.2008,5.2009,5.2011,5.212,5.2117,5.2125,5.2059,5.2061,5.2062,5.2114,0,5.1357,5.1469,5.1507,5.1597,5.1654,5.1679,5.1729,5.1779,5.1812,5.1861,5.1895,5.1951,5.1949,5.1971,5.2004,5.204,5.2074,5.2037,5.2099,5.2101,5.2082,5.2135,5.2134,5.218,5.2121,5.2123,5.2124,0,5.1444,5.1502,5.1599,5.1666,5.1691,5.1736,5.1797,5.1846,5.1901,5.1921,5.1962,5.1983,5.2039,5.2025,5.21,5.2074,5.2101,5.2122,5.2124,5.213,5.2113,5.214,5.2197,5.2202,5.2135,5.2134,5.2134,0,5.1463,5.1566,5.1636,5.1666,5.1747,5.1777,5.1811,5.1865,5.1901,5.1953,5.1976,5.2032,5.2063,5.2104,5.2136,5.2124,5.2207,5.2196,5.2222,5.2221,5.2238,5.2236,5.2297,5.2258,5.2258,5.2258,5.2258,0,5.1525,5.1582,5.1645,5.1688,5.175,5.1791,5.1849,5.1884,5.1931,5.1977,5.2,5.2042,5.2084,5.2129,5.2154,5.221,5.2224,5.2239,5.2245,5.2236,5.2234,5.2253,5.225,5.226,5.226,5.2259,5.2259,0,5.1557,5.1603,5.168,5.175,5.1768,5.181,5.1867,5.1906,5.1939,5.1996,5.2012,5.2061,5.2115,5.2152,5.2221,5.2238,5.2297,5.2304,5.228,5.2282,5.2305,5.2301,5.2379,5.239,5.2346,5.2346,5.2346,0,5.1593,5.1638,5.1712,5.1746,5.1781,5.1835,5.1872,5.1912,5.1948,5.2012,5.2042,5.2098,5.2145,5.2229,5.2268,5.232,5.2326,5.2349,5.2333,5.2322,5.2322,5.2319,5.2321,5.2351,5.2352,5.2352,5.2352,0,5.1651,5.167,5.1725,5.1786,5.183,5.1879,5.1928,5.1953,5.2,5.2038,5.2096,5.2132,5.2202,5.2256,5.231,5.234,5.2352,5.2357,5.2365,5.2356,5.2339,5.2345,5.2284,5.2355,5.2354,5.2354,5.2354,5.2354,5.1684,5.1723,5.178,5.1839,5.188,5.1924,5.1964,5.2001,5.2051,5.2113,5.2132,5.219,5.2238,5.2313,5.2343,5.2385,5.2383,5.2396,5.2398,5.24,5.2399,5.2334,5.2395,5.2395,5.2395,5.2395,5.2395,0,5.1739,5.1777,5.1831,5.1899,5.1943,5.1954,5.2008,5.2043,5.2095,5.214,5.2186,5.2249,5.23,5.2343,5.2394,5.2419,5.2426,5.2431,5.2429,5.2435,5.2399,5.2386,5.2425,5.2425,5.2425,5.2425,5.2425,5.2425,5.1773,5.1839,5.1864,5.1948,5.1984,5.2044,5.2073,5.2111,5.2148,5.2218,5.2262,5.229,5.2333,5.2387,5.2433,5.2443,5.246,5.2464,5.2475,5.2441,5.2438,5.2434,5.2422,5.2468,5.2468,5.2506,5.2507,5.2507]}]]